Regional Weather Roundup
Issued by NWS

Home | Current Version | Previous Version | Graphics & Text | Print | Product List | Glossary On
Versions: 1 2 3 4 5 6 7 8 9 10 11 12 13 14 15 16 17 18 19 20 21 22 23 24 25 26 27
000
ASUS45 KBOU 271407
RWRCO

WEATHER ROUNDUP FOR COLORADO
NATIONAL WEATHER SERVICE DENVER/BOULDER CO
800 AM MDT MON MAR 27 2017

NOTE: "FAIR" INDICATES FEW OR NO CLOUDS BELOW 12000 FEET WITH NO
SIGNIFICANT WEATHER AND/OR OBSTRUCTIONS TO VISIBILITY.

COZ001>005-013-030-031-271500-
...NORTHWEST COLORADO...

CITY           SKY/WX    TMP DP  RH WIND       PRES   REMARKS
CRAIG          CLOUDY    34  28  79 W5        29.96S WCI  30
HAYDEN         FAIR      34  25  69 E9        29.96F WCI  26
MEEKER         CLOUDY    37  27  67 NW3       29.94F
MOUNT WERNER   NOT AVBL
STEAMBOAT SPGS CLOUDY    31  27  87 CALM      29.97R
WALDEN         NOT AVBL
$$

COZ006>008-011-271500-
...WEST CENTRAL VALLEYS...

CITY           SKY/WX    TMP DP  RH WIND       PRES   REMARKS
GRAND JUNCTION MOCLDY    46  29  51 SE15      29.90F
MONTROSE       PTSUNNY   41  29  62 SE10      29.97S
EAGLE          PTSUNNY   30  25  80 CALM      30.01S
RIFLE          CLOUDY    39  30  70 SE5       29.94F
DELTA          PTSUNNY   42  31  64 NE6       29.95F
NUCLA          FAIR      37  30  75 E5        29.99F
$$

COZ017>023-064>068-271500-
...SOUTHWEST COLORADO...

CITY           SKY/WX    TMP DP  RH WIND       PRES   REMARKS
DURANGO        CLOUDY    31  25  78 NE3       30.02R
CORTEZ         MOCLDY    31  29  92 CALM      29.98S
PAGOSA SPRINGS FAIR      31  31  99 CALM      30.05S
TELLURIDE      NOT AVBL
WOLF CREEK PAS FOG       21  21 100 S8        30.14S VSB<1/4 WCI  12
$$

COZ009-010-012-014-032>034-037-058>063-271500-
...CENTRAL COLORADO...

CITY           SKY/WX    TMP DP  RH WIND       PRES   REMARKS
ASPEN          FAIR      33  21  61 SW5       29.96F WCI  29
BUENA VISTA    FAIR      30  21  69 W3        30.01S
COPPER MTN     NOT AVBL
BERTHOUD PASS  FAIR      14   3  62 NW28G33   30.01R WCI  -6
COTTONWOOD PAS FAIR      34  21  60 SE5       30.02F WCI  30
GUNNISON       NOT AVBL
KREMMLING      PTSUNNY   34  30  86 CALM      30.01S
LEADVILLE      FAIR      23  14  68 CALM      30.01F
MONARCH PASS   FAIR      19  18  93 W23       30.15S WCI   2
SALIDA         FAIR      31  26  83 CALM      30.09R
SUNLIGHT       CLOUDY    27  21  80 S6        30.06S WCI  20
WILKERSON PASS FAIR      27  12  54 W3        30.07S
$$

COZ069>075-271500-
...SAN LUIS VALLEY/SANGRE DE CRISTO MOUNTAINS...

CITY           SKY/WX    TMP DP  RH WIND       PRES   REMARKS
ALAMOSA        FAIR      32  29  88 NE3       30.02R
LA VETA PASS   NOT AVBL
SAGUACHE       FAIR      32  23  69 NW8       30.03S WCI  25
$$

COZ035-036-038>040-271500-
...NORTHERN COLORADO FRONT RANGE...

CITY           SKY/WX    TMP DP  RH WIND       PRES   REMARKS
DENVER INTL AP FAIR      35  32  88 S6        29.93R WCI  30
DMNS CITY PARK   N/A     40  35  79 E7        29.93S
AURORA         MOSUNNY   38  36  92 S9        29.94R
FRONT RANGE AP MOSUNNY   36  32  87 S7        29.95R
ERIE MUNI ARPT FOG       34  34 100 CALM      29.94S VSB<1/4
BOULDER MUN AP FAIR      37  37 100 CALM      29.93S FOG
CENTENNIAL     FAIR      37  33  85 SE7       29.94R
BROOMFIELD     MOSUNNY   39  37  93 CALM      29.94R
FORT COLLINS   FAIR      32  32 100 N3        29.95S
LONGMONT         N/A     34  33  95 CALM      29.96S FOG
$$

COZ041-046-047-076>085-087-088-271500-
...PIKES PEAK/PALMER DIVIDE AND SOUTHERN FOOTHILLS...

CITY           SKY/WX    TMP DP  RH WIND       PRES   REMARKS
COLO. SPRINGS  FAIR      37  34  89 N3        29.99R
A. F. ACADEMY  CLOUDY    38  37  98 NW3       29.98R
SCHRIEVER AFB  FAIR      39  37  92 N3        29.99R
ELLICOTT         N/A    N/A N/A N/A CALM      29.97R
FALCON         FAIR      37  36  99 W5        30.00R
FORT CARSON    FAIR      36  36  99 N6        29.97R
LIMON          FAIR      32  31  96 N5        29.97R WCI  27
MONUMENT HILL  FAIR      32  32 100 S10       29.99R WCI  24
TRINIDAD       FAIR      37  33  85 W5        29.98R
$$

COZ042>045-048>051-090-091-271500-
...NORTHEAST COLORADO...

CITY           SKY/WX    TMP DP  RH WIND       PRES   REMARKS
GREELEY ARPT   FAIR      32  27  81 CALM      29.96R
AKRON          FAIR      41  36  82 SW6       29.94R
BURLINGTON     FAIR      37  35  92 W8        29.96R
WRAY           NOT AVBL
STERLING       FAIR      32  32 100 CALM      29.94S
HOLYOKE        FAIR      37  34  87 W7        29.94S
FORT MORGAN    FAIR      35  34  94 W3        29.96R
$$

COZ086-089-092>099-271500-
...SOUTHEAST COLORADO...

CITY           SKY/WX    TMP DP  RH WIND       PRES   REMARKS
PUEBLO         FAIR      36  33  89 CALM      29.97R FOG
LA JUNTA       FAIR      41  38  89 SW5       29.97R
LAMAR          FAIR      34  31  88 W6        29.96R WCI  29
SPRINGFIELD      N/A     38  35  89 CALM      29.97R
$$




USA.gov is the U.S. government's official web portal to all federal, state and local government web resources and services.